(14444) = 2000 AX9 = 1992 TG1 = 1985 TP2 = 1998 HA18 = 1999 XU121

Discovered at Dynic on 1992-10-02 by A. Sugie.

Orbit

Orbit type: Main Belt

Note: WebGL enabled browser required.

epoch2024-03-31.0
epoch JD2460400.5
perihelion date2023-04-11.98822
perihelion JD2460046.48822
argument of perihelion (°)326.93046
ascending node (°)346.34776
inclination (°)6.14990
eccentricity0.1887798
perihelion distance (AU)1.8497739
Tisserand w.r.t. Jupiter3.6
ΔV w.r.t. Earth (km/sec)8.6
semimajor axis (AU)2.2802366
mean anomaly (°)101.33319
mean daily motion (°/day)0.28624240
aphelion distance (AU)2.711
period (years)3.44
P-vector [x]0.68628288
P-vector [y]-0.64190530
P-vector [z]-0.34201373
Q-vector [x]0.72689507
Q-vector [y]0.58896165
Q-vector [z]0.35319645
absolute magnitude14.62
phase slope0.15
uncertainty0
referenceMPEC 2024-D136
observations used3107
oppositions22
arc length (days)14015
first opposition used1985
last opposition used2024
residual rms (arc-secs)0.52
perturbers coarse indicatorM-v
perturbers precise indicator003Ek
first observation date used1985-10-14.0
last observation date used2024-02-28.0
computer nameMPCLINUX
JD of orbit computation2456731.545781
perihelion JD uncertainty (days)3.5494E-05
argument of perihelion uncertainty (°)3.4125E-05
ascending node uncertainty (°)3.2804E-05
inclination uncertainty (°)4.1544E-06
eccentricity uncertainty 3.6211E-08
perihelion distance uncertainty (AU)8.2116E-08
Minimum Orbit Intersection Distances (in AU)
for orbit epoch: 2460400.5, reference: E2024-F78
Mercury1.41736
Venus1.12161
Earth0.8395
Mars0.45842
Jupiter2.57071
Saturn6.41703
Uranus15.7759
Neptune27.4571

Observations

3135 total observations over interval: 1985 10 14.91666 – 2024 02 28.274280
These data are available for download (format description).

Date (UT) J2000 RA J2000 Dec Magn Location Ref
1985 10 14.91666 23 43 25.66 +03 07 23.3   010 – Caussols MPC 10796
1985 10 15.82638 23 42 51.60 +03 06 20.4   010 – Caussols MPC 10796
1991 04 09.13331 11 49 57.51 -02 42 00.2 19.3 V 691 – Steward Observatory, Kitt Peak-Spacewatch MPS 78877
1991 04 09.16832 11 49 55.47 -02 41 51.0 19.1 V 691 – Steward Observatory, Kitt Peak-Spacewatch MPS 78877
1991 04 09.18873 11 49 54.29 -02 41 47.5 19.1 V 691 – Steward Observatory, Kitt Peak-Spacewatch MPS 78877
1992 09 26.65972 01 44 50.04 +17 12 11.0 17.0   402 – Dynic Astronomical Observatory MPC 20993
1992 09 26.67222 01 44 49.45 +17 12 13.1   402 – Dynic Astronomical Observatory MPC 20993
1992 09 27.64175 01 43 57.02 +17 12 23.8   402 – Dynic Astronomical Observatory MPC 20993
1992 09 27.65694 01 43 56.17 +17 12 25.1   402 – Dynic Astronomical Observatory MPC 20993
1992 10 02.62720 01 39 06.78 +17 10 19.6 17.0   402 – Dynic Astronomical Observatory MPC 20993
1992 10 02.64103 01 39 06.18 +17 10 19.9   402 – Dynic Astronomical Observatory MPC 20993
1998 03 24.332211 13 06 42.63 -12 05 27.9 17.9 R 699 – Lowell Observatory-LONEOS MPS 11757
1998 03 24.342129 13 06 41.98 -12 05 26.8 18.0 R 699 – Lowell Observatory-LONEOS MPS 11757
1998 03 24.352060 13 06 41.42 -12 05 25.4 17.9 R 699 – Lowell Observatory-LONEOS MPS 11757
1998 03 25.32870 13 05 44.90 -12 03 09.7 17.7   704 – Lincoln Laboratory ETS, New Mexico MPS 11757
1998 03 25.34871 13 05 43.70 -12 03 05.7   704 – Lincoln Laboratory ETS, New Mexico MPS 11757
1998 03 25.36899 13 05 42.39 -12 03 04.5 18.3   704 – Lincoln Laboratory ETS, New Mexico MPS 11757
1998 03 25.38928 13 05 41.23 -12 03 00.8 17.6   704 – Lincoln Laboratory ETS, New Mexico MPS 11757
1998 03 25.40941 13 05 39.96 -12 02 58.3 18.0   704 – Lincoln Laboratory ETS, New Mexico MPS 11757
1998 03 26.60466 13 04 29.34 -11 59 57.7 19.3 V 566 – Haleakala-NEAT/GEODSS MPS 18803
1998 03 26.61492 13 04 28.70 -11 59 56.4 18.8 V 566 – Haleakala-NEAT/GEODSS MPS 18803
1998 03 26.62450 13 04 28.12 -11 59 55.0 18.6 V 566 – Haleakala-NEAT/GEODSS MPS 18803
1998 03 27.30014 13 03 47.863 -11 58 02.78 16.72 J I02 – Cerro Tololo Observatory, La Serena--2MASS MPS 80698
1998 04 01.24078 12 58 41.47 -11 43 20.2 17.7   704 – Lincoln Laboratory ETS, New Mexico MPS 11757
1998 04 01.26082 12 58 40.19 -11 43 16.2 17.5   704 – Lincoln Laboratory ETS, New Mexico MPS 11757
1998 04 01.28084 12 58 38.83 -11 43 12.6 17.8   704 – Lincoln Laboratory ETS, New Mexico MPS 11757
1998 04 01.30111 12 58 37.54 -11 43 08.2 17.9   704 – Lincoln Laboratory ETS, New Mexico MPS 11757
1998 04 01.32119 12 58 36.20 -11 43 05.5 17.6   704 – Lincoln Laboratory ETS, New Mexico MPS 11757
1998 04 18.25566 12 40 33.09 -10 35 36.1 18.7   704 – Lincoln Laboratory ETS, New Mexico MPS 1082
1998 04 18.27656 12 40 31.62 -10 35 28.0 19.2   704 – Lincoln Laboratory ETS, New Mexico MPS 1082
1998 04 18.29734 12 40 30.39 -10 35 23.7 19.2   704 – Lincoln Laboratory ETS, New Mexico MPS 1082
1998 04 18.31806 12 40 29.16 -10 35 18.4 19.2   704 – Lincoln Laboratory ETS, New Mexico MPS 1082
1998 04 19.24995 12 39 33.28 -10 31 16.3   704 – Lincoln Laboratory ETS, New Mexico MPS 1082
1998 04 19.27158 12 39 31.92 -10 31 10.2 18.7   704 – Lincoln Laboratory ETS, New Mexico MPS 1082
1998 04 19.29315 12 39 30.60 -10 31 05.4 19.1   704 – Lincoln Laboratory ETS, New Mexico MPS 1082
1998 04 19.31457 12 39 29.27 -10 30 59.2 18.3   704 – Lincoln Laboratory ETS, New Mexico MPS 1082
1998 04 20.15470 12 38 39.99 -10 27 18.0 19.4   704 – Lincoln Laboratory ETS, New Mexico MPS 11757
1998 04 20.17498 12 38 38.58 -10 27 16.8 18.0   704 – Lincoln Laboratory ETS, New Mexico MPS 11757
1998 04 20.19514 12 38 37.36 -10 27 11.5 17.9   704 – Lincoln Laboratory ETS, New Mexico MPS 11757
1998 04 20.21604 12 38 36.17 -10 27 06.6 18.7   704 – Lincoln Laboratory ETS, New Mexico MPS 11757
1998 04 20.23610 12 38 34.84 -10 27 01.0 18.5   704 – Lincoln Laboratory ETS, New Mexico MPS 11757
1998 04 22.15372 12 36 44.17 -10 18 45.7 17.7   704 – Lincoln Laboratory ETS, New Mexico MPS 11757
1998 04 22.17256 12 36 43.10 -10 18 40.6 18.0   704 – Lincoln Laboratory ETS, New Mexico MPS 11757
1998 04 22.19133 12 36 41.98 -10 18 36.2 18.0   704 – Lincoln Laboratory ETS, New Mexico MPS 11757
1998 04 22.21025 12 36 40.93 -10 18 31.1 18.6   704 – Lincoln Laboratory ETS, New Mexico MPS 11757
1998 04 22.22901 12 36 39.74 -10 18 27.0 18.0   704 – Lincoln Laboratory ETS, New Mexico MPS 11757
1999 10 12.27622 03 06 07.51 +25 56 42.4 17.5   704 – Lincoln Laboratory ETS, New Mexico MPS 11757
1999 10 12.29017 03 06 06.75 +25 56 43.7 18.0   704 – Lincoln Laboratory ETS, New Mexico MPS 11757
1999 10 12.30491 03 06 05.98 +25 56 45.2 17.7   704 – Lincoln Laboratory ETS, New Mexico MPS 11757
1999 10 12.31935 03 06 05.22 +25 56 46.0 17.9   704 – Lincoln Laboratory ETS, New Mexico MPS 11757
1999 10 12.33401 03 06 04.46 +25 56 47.6 17.9   704 – Lincoln Laboratory ETS, New Mexico MPS 11757
1999 10 13.26151 03 05 18.06 +25 57 51.5 17.3   704 – Lincoln Laboratory ETS, New Mexico MPS 11757
1999 10 13.27875 03 05 17.12 +25 57 52.9 17.6   704 – Lincoln Laboratory ETS, New Mexico MPS 11757
1999 10 13.29483 03 05 16.27 +25 57 54.3 17.7   704 – Lincoln Laboratory ETS, New Mexico MPS 11757
1999 10 13.31168 03 05 15.37 +25 57 55.7 17.5   704 – Lincoln Laboratory ETS, New Mexico MPS 11757
1999 10 13.32730 03 05 14.56 +25 57 57.3 17.8   704 – Lincoln Laboratory ETS, New Mexico MPS 11757
1999 10 15.25634 03 03 32.51 +25 59 35.0 17.3 R 699 – Lowell Observatory-LONEOS MPS 11757
1999 10 15.28691 03 03 30.77 +25 59 36.8   699 – Lowell Observatory-LONEOS MPS 11757
1999 10 15.31745 03 03 29.11 +25 59 37.4   699 – Lowell Observatory-LONEOS MPS 11757
1999 10 21.33982 02 57 30.54 +25 59 38.2 17.2 R 699 – Lowell Observatory-LONEOS MPS 11757
1999 10 21.37038 02 57 28.58 +25 59 37.6   699 – Lowell Observatory-LONEOS MPS 11757
1999 10 21.40098 02 57 26.53 +25 59 36.6   699 – Lowell Observatory-LONEOS MPS 11757
1999 10 30.41207 02 47 12.17 +25 45 13.1 16.8 R 699 – Lowell Observatory-LONEOS MPS 11757
1999 10 30.44772 02 47 09.54 +25 45 07.4   699 – Lowell Observatory-LONEOS MPS 11757
1999 10 30.48339 02 47 06.97 +25 45 01.3   699 – Lowell Observatory-LONEOS MPS 11757
1999 11 03.31354 02 42 32.73 +25 34 00.3 17.3   704 – Lincoln Laboratory ETS, New Mexico MPS 11757
1999 11 03.32966 02 42 31.53 +25 33 56.9 16.9   704 – Lincoln Laboratory ETS, New Mexico MPS 11757
1999 11 03.34576 02 42 30.34 +25 33 53.3 17.2   704 – Lincoln Laboratory ETS, New Mexico MPS 11757
1999 11 03.36185 02 42 29.12 +25 33 50.4 17.0   704 – Lincoln Laboratory ETS, New Mexico MPS 11757
1999 11 03.37792 02 42 27.91 +25 33 46.9 17.3   704 – Lincoln Laboratory ETS, New Mexico MPS 11757
1999 11 13.24102 02 30 59.84 +24 54 42.0 16.9 R 703 – Catalina Sky Survey MPS 11757
1999 11 13.25336 02 30 59.00 +24 54 38.5 16.9 R 703 – Catalina Sky Survey MPS 11757
1999 11 13.26574 02 30 58.12 +24 54 35.6 16.8 R 703 – Catalina Sky Survey MPS 11757
1999 11 13.30341 02 30 55.57 +24 54 24.3 17.1 R 703 – Catalina Sky Survey MPS 11757
1999 12 07.06978 02 12 18.01 +23 01 35.0 17.7 R 703 – Catalina Sky Survey MPS 8073
1999 12 07.08193 02 12 17.67 +23 01 32.4 17.6 R 703 – Catalina Sky Survey MPS 8073
1999 12 07.09788 02 12 17.30 +23 01 27.9 17.5 R 703 – Catalina Sky Survey MPS 8073
1999 12 07.11010 02 12 16.96 +23 01 25.5 17.5 R 703 – Catalina Sky Survey MPS 8073
1999 12 08.20186 02 11 51.81 +22 56 56.5 17.6   704 – Lincoln Laboratory ETS, New Mexico MPS 11757
1999 12 08.21468 02 11 51.49 +22 56 53.2 17.8   704 – Lincoln Laboratory ETS, New Mexico MPS 11757
1999 12 08.22747 02 11 51.21 +22 56 50.2 18.8   704 – Lincoln Laboratory ETS, New Mexico MPS 11757
1999 12 08.24025 02 11 50.94 +22 56 47.5 18.4   704 – Lincoln Laboratory ETS, New Mexico MPS 11757
1999 12 08.25303 02 11 50.55 +22 56 43.6 18.1   704 – Lincoln Laboratory ETS, New Mexico MPS 11757
1999 12 13.07651 02 10 31.62 +22 38 38.9 17.7 R 703 – Catalina Sky Survey MPS 8073
1999 12 13.08870 02 10 31.46 +22 38 36.1 17.7 R 703 – Catalina Sky Survey MPS 8073
1999 12 13.10092 02 10 31.28 +22 38 33.2 17.6 R 703 – Catalina Sky Survey MPS 8073
1999 12 13.11314 02 10 31.11 +22 38 29.9 17.4 R 703 – Catalina Sky Survey MPS 8073
